Probability
0 0 0 0 0 0 0 0 0 0 6 10 16 26 48 55 71 74 87 94 94 97 90 84 81 81 74 68 65 58 58 52 45 48 45 39 35 29 23 19 19 26 29 23
0 0 0 0 0 0 0 0 0 0 6 13 26 32 52 61 68 77 87 90 90 97 94 84 74 74 71 68 68 58 48 45 42 42 39 32 29 29 26 26 23 23 19 19
0 0 0 0 0 0 0 0 0 6 13 19 19 35 52 68 74 81 81 90 90 87 87 87 74 74 71 68 61 52 52 45 39 39 32 26 26 29 26 26 23 19 19 6
0 0 0 0 3 0 3 3 10 6 13 23 32 48 58 71 84 84 84 84 84 84 87 87 81 74 71 61 55 55 52 45 42 35 29 26 26 29 26 23 23 13 6 6
0 0 0 0 3 0 6 10 6 10 16 23 32 35 45 61 77 84 81 84 84 84 84 81 77 77 61 58 55 52 45 45 32 32 26 26 26 29 23 19 16 6 6 6
0 0 0 3 3 3 3 6 10 10 16 23 32 39 52 65 71 71 77 81 84 84 84 77 74 77 68 55 55 48 42 35 32 32 29 29 26 26 19 19 16 6 6 6
3 0 3 3 6 3 0 26 26 16 32 35 52 68 77 74 81 77 74 74 81 84 84 81 74 74 77 61 55 48 32 32 29 32 29 29 26 26 23 16 13 6 6 6
0 0 6 6 10 13 55 71 45 35 39 61 77 74 74 77 84 77 77 74 77 84 87 77 77 77 77 58 55 45 42 35 32 35 19 13 19 26 19 19 10 6 6 6
16 6 39 29 61 74 71 68 55 42 55 61 61 71 74 81 77 77 81 81 77 81 84 81 81 81 71 58 48 39 35 32 29 26 23 19 13 6 13 13 13 10 6 6
52 35 26 35 55 45 45 48 52 61 58 58 65 74 77 77 77 77 77 84 84 74 74 77 77 77 61 52 52 45 39 35 26 19 13 10 13 3 3 6 6 10 6 6
45 55 48 45 58 48 45 52 52 58 58 58 71 74 71 77 81 81 81 84 81 81 77 77 71 65 48 48 45 42 48 39 23 10 10 10 10 6 6 3 3 3 6 10
32 55 55 58 61 48 45 52 55 61 58 58 58 71 74 77 77 77 77 81 77 77 74 68 58 48 45 48 42 39 35 29 23 10 10 6 6 3 0 3 0 0 0 0
42 45 45 48 45 45 45 42 48 52 55 52 55 65 68 71 68 71 74 77 74 71 65 61 52 39 35 39 45 45 45 39 23 10 10 10 6 3 3 0 0 0 0 0
42 48 45 42 42 39 39 45 48 52 52 55 61 61 71 68 68 68 68 71 65 55 58 52 45 32 29 32 39 42 29 23 19 13 6 6 6 6 3 0 0 0 0 0
39 39 42 45 35 39 39 48 45 48 45 52 55 68 61 65 61 58 55 55 55 55 45 45 45 35 35 26 32 29 23 23 19 13 10 6 6 6 3 3 0 0 0 0
35 39 42 35 35 29 35 35 39 39 42 48 45 58 61 58 55 52 52 52 48 42 39 39 39 35 32 26 35 29 26 13 13 13 10 10 6 3 3 3 0 0 0 0
32 35 32 32 29 32 32 32 29 35 35 32 35 42 42 39 39 35 35 35 42 42 39 39 35 32 26 23 16 16 16 13 6 6 6 10 10 6 3 0 0 0 0 0
32 26 19 23 19 19 19 19 23 23 32 29 32 35 29 32 39 39 35 39 39 39 39 32 29 26 19 13 13 10 10 13 13 13 10 10 10 10 3 0 0 0 3 0
23 23 16 16 16 16 16 16 16 19 26 19 19 26 23 26 26 26 35 35 32 35 26 26 13 16 16 13 6 10 6 10 13 10 6 3 3 6 3 3 3 0 0 0
19 16 16 19 19 13 13 13 13 13 10 13 16 19 16 26 26 26 32 29 26 29 26 23 13 10 10 10 3 6 6 3 3 3 3 3 3 3 0 0 0 0 0 0
16 13 13 13 16 13 10 10 10 10 10 13 13 19 19 26 26 23 23 29 23 26 19 3 10 13 10 10 0 3 3 3 3 3 3 0 0 0 0 0 0 0 0 0
10 6 3 0 6 3 3 10 10 10 10 16 10 16 23 26 19 23 23 19 16 3 3 6 10 6 6 0 0 0 0 0 0 0 0 0 0 0 0 0 0 0 0 0
3 6 3 3 6 10 13 10 10 6 6 10 13 19 13 19 16 13 10 13 3 0 0 3 0 0 0 0 0 0 3 3 0 0 0 0 0 0 0 0 0 0 0 0
6 6 6 6 10 10 6 13 10 13 6 16 13 19 16 13 10 10 10 0 0 0 0 0 0 0 0 0 3 3 3 0 0 0 0 0 0 0 0 0 0 0 0 0
10 10 6 10 6 6 10 19 10 10 3 10 10 10 6 10 10 10 3 0 0 0 0 0 0 0 0 0 0 0 0 0 0 0 0 0 0 0 0 0 0 0 0 0
10 6 13 16 13 13 10 6 3 6 10 6 6 6 3 10 6 3 3 3 0 0 0 0 0 0 0 0 0 0 0 0 0 0 0 0 0 0 0 0 0 0 0 0
16 19 19 13 10 10 3 3 3 6 6 6 3 6 6 6 6 3 3 0 0 0 0 0 0 0 0 0 0 0 0 0 0 0 0 0 0 0 0 0 0 0 0 0
Height
5880 5886 5891 5893 5897 5900 5905 5909 5913 5915 5915 5914 5915 5915 5915 5915 5915 5915 5916 5915 5914 5914 5914 5913 5911 5910 5909 5907 5906 5904 5903 5901 5900 5898 5897 5895 5893 5892 5890 5889 5887 5886 5885 5884
5873 5879 5885 5889 5892 5896 5899 5904 5907 5911 5912 5911 5912 5911 5911 5912 5913 5912 5913 5913 5912 5911 5911 5910 5909 5908 5907 5906 5904 5902 5901 5900 5898 5897 5895 5893 5891 5889 5888 5886 5885 5884 5883 5881
5868 5874 5878 5882 5887 5891 5894 5898 5902 5905 5907 5907 5907 5907 5907 5909 5910 5910 5909 5909 5909 5908 5908 5908 5908 5907 5906 5904 5902 5901 5899 5897 5896 5894 5892 5891 5889 5887 5885 5884 5882 5881 5880 5878
5862 5867 5870 5878 5882 5886 5889 5892 5896 5899 5901 5902 5903 5903 5903 5905 5906 5906 5906 5906 5906 5906 5906 5906 5905 5904 5903 5902 5900 5898 5896 5895 5893 5891 5890 5888 5886 5884 5882 5881 5879 5878 5876 5875
5855 5860 5864 5870 5874 5878 5882 5886 5890 5893 5895 5896 5898 5898 5899 5900 5902 5902 5902 5902 5902 5902 5902 5902 5901 5900 5899 5898 5897 5895 5893 5892 5890 5888 5887 5885 5883 5881 5879 5878 5876 5874 5872 5870
5849 5854 5859 5864 5868 5872 5877 5878 5883 5886 5888 5891 5892 5893 5893 5895 5897 5898 5899 5899 5898 5899 5899 5898 5897 5896 5896 5894 5894 5892 5890 5888 5887 5885 5884 5882 5880 5878 5876 5874 5872 5870 5868 5866
5842 5848 5853 5858 5862 5866 5871 5873 5876 5879 5882 5885 5887 5888 5889 5891 5892 5893 5894 5895 5896 5896 5896 5894 5893 5893 5893 5892 5890 5889 5887 5885 5883 5882 5880 5878 5876 5875 5873 5870 5868 5866 5865 5863
5836 5842 5849 5851 5855 5859 5862 5866 5869 5873 5876 5878 5880 5882 5884 5885 5887 5889 5890 5891 5891 5892 5892 5891 5891 5890 5889 5888 5887 5885 5883 5882 5880 5879 5877 5875 5873 5871 5869 5867 5865 5863 5862 5860
5831 5837 5841 5843 5846 5850 5854 5859 5862 5866 5868 5871 5873 5876 5878 5880 5882 5883 5884 5885 5886 5887 5888 5887 5887 5887 5885 5884 5883 5881 5880 5878 5877 5875 5873 5871 5869 5867 5865 5864 5862 5860 5859 5857
5824 5828 5833 5836 5839 5844 5848 5852 5856 5859 5862 5864 5867 5869 5872 5874 5876 5878 5879 5880 5881 5882 5882 5883 5882 5882 5881 5880 5879 5877 5876 5874 5873 5871 5869 5867 5865 5864 5862 5860 5858 5856 5855 5853
5815 5820 5825 5828 5831 5836 5840 5845 5849 5852 5855 5858 5860 5862 5865 5868 5870 5872 5873 5875 5876 5876 5877 5877 5877 5877 5876 5875 5874 5873 5871 5870 5868 5866 5864 5863 5861 5860 5858 5856 5854 5852 5850 5848
5808 5813 5818 5821 5824 5829 5834 5838 5842 5845 5848 5851 5853 5855 5859 5862 5864 5866 5867 5868 5869 5870 5871 5871 5871 5871 5870 5869 5869 5867 5866 5864 5863 5861 5859 5858 5856 5855 5853 5851 5849 5847 5845 5844
5799 5803 5808 5813 5818 5822 5827 5830 5834 5838 5841 5844 5847 5850 5853 5855 5857 5859 5861 5862 5863 5864 5864 5865 5865 5865 5864 5863 5862 5861 5860 5859 5857 5856 5854 5853 5851 5849 5848 5846 5844 5842 5840 5838
5792 5797 5802 5808 5813 5816 5821 5825 5828 5831 5834 5837 5840 5843 5846 5848 5850 5852 5854 5855 5856 5857 5858 5858 5858 5858 5857 5857 5856 5855 5854 5852 5851 5850 5848 5847 5845 5843 5842 5840 5838 5836 5834 5832
5784 5790 5796 5801 5806 5810 5815 5818 5822 5825 5828 5830 5833 5836 5839 5841 5843 5845 5847 5848 5849 5850 5850 5851 5851 5851 5851 5850 5849 5848 5847 5846 5845 5844 5842 5840 5839 5837 5835 5833 5832 5830 5827 5825
5779 5785 5790 5795 5799 5804 5808 5811 5815 5818 5821 5823 5825 5828 5831 5833 5835 5837 5839 5840 5841 5842 5843 5843 5843 5843 5843 5843 5842 5841 5840 5839 5838 5837 5835 5834 5832 5830 5828 5827 5825 5823 5821 5819
5775 5780 5784 5788 5793 5797 5801 5804 5807 5811 5814 5816 5818 5821 5823 5825 5828 5830 5831 5832 5833 5834 5835 5835 5836 5836 5835 5835 5834 5834 5833 5832 5831 5829 5828 5827 5825 5823 5821 5819 5817 5816 5814 5811
5769 5773 5777 5781 5785 5790 5794 5797 5800 5803 5806 5809 5811 5813 5815 5818 5820 5821 5823 5824 5825 5826 5827 5827 5827 5827 5827 5827 5826 5825 5825 5824 5823 5822 5820 5819 5817 5815 5813 5812 5810 5808 5806 5804
5762 5766 5770 5774 5778 5782 5786 5790 5792 5795 5798 5801 5803 5805 5807 5809 5811 5813 5814 5815 5816 5817 5818 5819 5819 5819 5819 5818 5818 5817 5816 5816 5815 5814 5812 5811 5809 5807 5806 5804 5802 5800 5798 5796
5755 5759 5763 5768 5772 5775 5779 5782 5784 5787 5790 5792 5795 5797 5799 5801 5802 5804 5806 5807 5808 5809 5809 5810 5810 5810 5810 5809 5809 5809 5808 5807 5806 5805 5804 5802 5801 5799 5797 5796 5794 5792 5790 5788
5749 5753 5757 5760 5764 5768 5771 5773 5776 5779 5781 5784 5786 5788 5791 5792 5794 5796 5797 5799 5800 5800 5800 5801 5801 5801 5801 5800 5800 5799 5799 5798 5797 5796 5795 5793 5792 5790 5789 5787 5785 5783 5782 5780
5742 5746 5749 5753 5756 5759 5762 5765 5767 5770 5772 5775 5777 5780 5782 5784 5786 5787 5789 5790 5791 5791 5791 5792 5792 5792 5792 5791 5791 5790 5789 5788 5787 5786 5786 5784 5783 5782 5780 5779 5777 5775 5773 5772
5735 5739 5742 5745 5748 5751 5754 5756 5758 5761 5763 5766 5768 5771 5773 5776 5777 5779 5780 5782 5782 5783 5783 5783 5783 5783 5783 5782 5782 5781 5780 5779 5779 5778 5777 5776 5774 5773 5772 5770 5768 5767 5765 5763
5729 5731 5734 5737 5740 5743 5746 5748 5750 5752 5755 5758 5760 5763 5765 5767 5769 5770 5772 5773 5774 5774 5775 5775 5775 5775 5774 5774 5773 5772 5772 5771 5770 5769 5768 5767 5766 5764 5763 5761 5760 5758 5756 5754
5722 5725 5728 5730 5733 5736 5738 5741 5743 5745 5748 5750 5753 5755 5757 5759 5761 5762 5764 5764 5765 5766 5766 5767 5766 5766 5766 5765 5765 5764 5764 5763 5762 5761 5760 5759 5757 5756 5754 5753 5751 5750 5748 5746
5716 5719 5721 5724 5727 5730 5732 5734 5736 5739 5741 5743 5746 5748 5750 5751 5753 5754 5755 5756 5757 5757 5758 5758 5758 5758 5758 5758 5757 5757 5756 5755 5754 5753 5752 5751 5749 5748 5747 5745 5743 5741 5739 5737
5710 5713 5715 5718 5721 5724 5726 5728 5730 5732 5735 5737 5739 5741 5743 5744 5746 5747 5748 5749 5749 5750 5751 5751 5751 5751 5750 5750 5749 5749 5748 5747 5746 5745 5744 5742 5741 5740 5738 5736 5735 5733 5731 5729
Wind_Speed
31 25 20 22 24 24 25 24 22 19 19 21 21 20 17 17 17 15 14 14 13 13 13 13 13 14 14 14 14 14 14 14 14 14 14 14 14 14 14 14 13 13 12 12
35 31 24 22 22 24 26 26 24 21 20 20 22 22 21 18 17 16 15 15 15 14 13 14 14 14 14 14 14 14 14 14 15 15 15 15 15 15 15 14 14 14 14 14
34 32 30 28 25 24 26 27 26 25 23 21 22 24 23 19 18 17 16 16 16 15 15 15 14 14 15 15 15 16 16 16 15 16 16 16 16 16 15 15 15 15 15 15
33 32 34 32 27 25 25 27 27 27 26 26 24 24 24 21 19 18 17 16 16 16 15 15 15 15 15 16 17 17 17 17 16 16 16 17 17 16 16 16 16 17 17 17
34 31 32 32 31 29 28 28 27 27 27 26 24 24 24 21 20 19 17 17 17 16 16 16 16 16 17 17 17 18 18 18 17 17 17 17 18 18 17 17 18 19 18 17
35 32 30 31 29 29 28 29 29 29 28 27 25 24 23 22 21 21 20 19 18 18 17 17 16 17 18 18 18 19 18 18 17 17 17 18 18 18 19 19 19 19 17 17
35 33 30 27 27 28 30 30 30 30 29 28 27 26 25 23 23 22 21 21 20 19 18 18 18 18 18 19 19 19 19 18 18 18 19 19 19 19 20 20 18 17 16 16
36 33 29 28 28 30 31 30 30 30 30 29 28 28 26 25 24 24 22 21 20 20 19 19 19 19 19 19 20 20 20 19 18 19 20 20 20 20 20 19 17 17 17 17
36 36 32 31 33 33 32 31 31 31 31 30 29 28 28 26 25 24 23 22 22 21 21 20 20 20 20 20 21 21 20 19 19 20 20 20 20 20 20 19 18 17 17 18
34 36 36 35 34 34 33 32 32 31 31 30 29 29 28 26 25 24 24 24 23 23 23 22 22 22 22 22 22 21 20 20 21 21 22 21 21 20 20 20 20 19 19 18
37 38 37 38 35 33 34 33 32 32 31 29 29 29 28 26 26 25 24 24 24 24 24 24 24 24 23 23 22 22 22 22 23 23 23 23 22 21 21 21 20 20 20 20
40 39 38 37 36 33 32 33 33 33 32 31 31 30 29 27 27 26 25 25 25 25 25 25 25 25 24 24 24 24 24 24 25 24 24 23 22 22 22 23 22 22 21 21
39 38 36 36 34 33 32 32 32 32 31 31 31 30 28 28 28 27 27 26 26 26 26 26 26 26 26 26 26 26 25 26 25 24 23 23 23 23 23 24 23 23 22 22
35 35 36 35 34 35 33 32 32 31 30 31 31 30 29 29 29 28 28 28 27 27 27 27 27 27 27 27 27 27 27 27 26 25 25 25 25 25 25 25 25 24 24 24
34 33 33 32 33 33 32 32 31 31 31 31 31 31 30 30 30 29 29 29 29 29 29 28 28 28 28 28 28 28 28 28 27 27 26 26 27 27 27 27 26 26 26 25
34 35 34 33 32 31 31 31 31 31 31 31 31 31 31 31 30 30 29 30 30 30 30 29 29 30 29 29 29 29 29 28 29 28 28 28 28 28 28 28 27 27 27 27
33 33 34 34 33 33 32 32 32 32 31 31 31 31 32 32 31 31 31 31 31 31 31 31 31 31 30 30 30 30 30 30 30 29 29 29 29 30 30 28 27 27 28 27
34 33 33 33 34 34 34 33 33 33 32 32 33 32 32 32 32 32 32 32 32 32 32 32 32 32 32 31 31 31 31 31 31 30 30 30 30 30 29 28 27 28 28 27
33 33 33 33 33 33 33 33 34 34 33 33 33 32 32 32 33 33 33 33 33 33 32 32 32 32 32 32 32 32 32 32 32 31 31 31 31 30 29 29 29 29 28 28
32 32 33 33 33 33 32 33 33 34 34 33 33 33 33 33 33 33 32 32 31 31 31 32 33 33 33 32 32 32 32 32 32 32 31 31 31 30 30 30 30 30 30 30
31 31 32 33 33 33 33 33 34 34 34 34 34 34 33 32 32 31 31 31 31 31 31 31 32 32 32 31 32 32 32 32 32 31 31 31 30 30 30 31 31 30 30 30
30 31 32 33 33 33 34 34 34 34 33 33 33 33 33 32 32 32 32 31 30 30 30 30 31 31 31 31 32 32 33 32 31 31 30 30 30 30 30 30 30 30 31 30
29 30 31 33 33 33 33 33 33 33 32 32 33 33 32 32 32 31 31 31 31 31 30 30 30 31 31 31 31 32 32 31 30 29 29 30 30 30 30 29 29 30 30 30
27 28 29 30 30 30 30 30 30 30 29 29 30 29 29 30 30 30 30 30 30 29 29 29 29 30 29 29 29 29 28 28 28 28 29 29 29 29 29 28 28 29 29 30
27 28 27 27 27 27 26 26 26 26 27 27 28 28 28 29 29 29 29 29 28 29 29 29 29 29 28 27 27 26 26 27 27 28 28 28 29 29 29 28 28 28 29 30
25 26 27 27 26 26 26 26 26 26 27 26 27 27 27 27 26 26 26 26 27 27 27 28 27 27 26 26 26 26 26 26 27 28 28 27 27 27 28 28 28 28 29 30
22 23 25 26 26 26 25 25 25 25 26 26 26 26 25 25 24 24 24 25 25 26 26 26 25 25 26 26 26 26 26 26 27 27 27 27 27 27 27 26 27 28 28 29
Wind_Direction
214 215 227 237 230 224 220 219 224 232 239 251 262 268 271 272 272 274 281 287 290 298 306 314 320 323 327 327 329 329 328 326 324 324 324 322 321 319 315 314 312 308 311 313
216 211 213 227 231 227 224 222 222 226 238 249 259 264 264 266 271 272 275 282 286 291 300 308 315 319 322 325 327 326 324 323 320 319 319 318 317 315 312 311 309 307 308 309
218 216 216 221 223 226 227 225 223 224 230 244 253 260 262 262 266 272 274 281 287 290 294 300 305 311 317 320 323 323 320 318 317 317 318 317 315 314 313 310 308 305 306 306
219 217 220 222 220 223 227 226 224 227 234 242 249 256 260 261 262 264 270 275 278 282 289 294 298 304 309 314 316 318 317 315 314 314 316 315 313 312 311 311 310 307 305 303
217 220 226 225 222 221 223 225 225 227 233 239 246 252 256 258 257 260 266 273 276 279 286 291 295 301 305 308 311 313 314 313 312 313 315 314 312 313 310 310 310 308 306 301
216 216 223 229 228 227 228 228 225 227 232 238 242 247 252 256 257 259 265 270 273 276 283 285 291 298 303 308 310 312 310 310 310 312 313 314 313 313 312 311 310 308 307 303
215 216 220 223 226 229 231 232 229 230 235 238 240 244 249 253 256 259 263 266 270 275 281 285 291 296 299 303 306 308 307 309 310 309 311 312 312 313 313 315 314 311 309 308
215 212 217 219 222 226 231 232 232 232 235 237 239 243 248 252 256 259 260 262 265 271 278 283 288 293 297 300 302 304 304 305 307 308 309 310 311 311 312 313 312 311 309 309
218 215 214 221 223 226 229 230 231 232 235 238 240 244 248 251 253 256 258 260 262 268 274 279 284 289 293 295 298 301 302 303 305 308 310 309 309 310 310 310 309 309 309 309
215 215 216 221 225 228 230 232 233 235 237 241 241 244 247 250 251 253 256 259 262 266 271 275 279 284 287 291 294 298 299 300 302 305 308 309 307 307 309 308 306 307 307 306
214 216 218 223 226 227 229 231 233 235 238 241 244 244 247 250 251 252 255 258 261 265 269 273 277 280 283 286 290 293 296 298 300 302 305 305 304 304 307 307 304 305 305 306
216 219 221 225 229 229 230 231 233 236 239 243 245 248 247 248 250 253 256 259 262 264 268 271 274 277 280 283 287 290 293 295 297 297 300 301 301 303 304 304 304 304 305 305
217 220 222 225 227 229 232 233 236 238 239 242 245 247 246 248 250 253 256 259 262 264 267 270 273 276 278 281 286 289 291 293 294 295 296 298 298 300 301 303 303 303 303 303
218 220 223 226 230 232 234 236 238 239 240 242 244 245 246 247 250 253 256 258 260 263 266 269 272 276 278 280 283 287 288 290 292 292 293 296 297 298 299 299 301 300 299 299
221 222 225 228 232 233 234 236 238 239 241 243 244 245 246 248 250 253 256 258 261 263 265 268 271 274 276 279 282 284 286 288 290 291 292 293 294 296 297 299 300 299 298 298
226 228 230 231 230 231 233 236 238 239 241 243 245 246 247 249 251 253 255 259 261 263 265 267 270 273 275 277 280 282 284 287 288 289 292 293 293 295 297 298 298 298 297 296
227 228 230 231 231 232 234 236 239 240 242 245 247 248 249 250 252 254 256 259 260 261 264 267 269 271 273 276 278 280 282 285 288 289 290 291 292 293 295 295 295 295 296 296
228 229 229 230 232 233 235 238 240 242 244 246 248 250 251 252 253 254 256 259 260 261 264 266 269 271 273 275 278 279 280 282 284 286 287 289 292 293 293 292 293 294 294 295
230 231 232 233 234 235 238 241 243 245 246 248 250 252 252 253 252 253 257 259 261 262 263 265 268 272 274 275 276 278 280 281 283 284 285 287 289 290 291 291 291 291 292 294
230 230 232 234 236 238 240 242 244 246 247 248 250 253 253 253 254 255 256 259 262 263 263 265 268 271 273 274 275 277 280 281 282 283 284 286 287 288 289 290 290 291 291 292
230 230 232 234 236 238 241 244 247 248 248 248 249 251 252 253 254 257 258 260 262 264 265 267 269 271 273 273 275 276 278 280 281 282 283 285 286 287 288 288 288 288 289 291
231 232 233 235 238 240 242 244 246 247 248 248 249 249 251 253 255 257 259 261 263 265 266 267 269 271 273 274 275 275 277 279 280 282 282 284 285 286 287 288 288 288 288 291
233 234 235 236 238 240 242 243 245 246 246 247 246 247 249 251 254 256 258 260 262 264 266 267 269 272 274 275 275 277 278 279 280 280 282 284 285 286 287 288 287 287 289 291
234 235 237 238 238 240 242 241 241 242 242 243 244 245 248 251 253 255 257 258 260 262 265 267 269 271 272 275 276 277 276 277 278 280 282 284 286 286 288 288 287 288 291 293
234 235 235 236 237 238 239 238 238 239 241 242 244 245 248 250 253 255 256 258 259 262 264 266 268 270 271 273 275 277 278 280 281 283 285 287 289 290 290 290 289 291 292 293
233 233 234 235 235 237 240 241 241 241 242 244 246 248 249 250 252 254 256 258 260 262 264 265 267 268 271 274 277 278 280 282 284 287 288 288 289 290 290 289 290 291 292 294
231 231 232 234 236 239 241 243 243 243 242 243 245 247 248 250 252 255 257 259 261 263 264 264 265 269 271 274 276 278 281 283 284 286 288 289 290 291 291 290 291 293 293 295